Weather History for KEGE - January, 2013

Change the Weather History Date:

Sunday, January 13, 2013

  Actual Average (KASE) Record (KASE)
Temperature  
Mean Temperature 4 °F 20 °F  
Max Temperature 12 °F 33 °F - ()
Min Temperature -5 °F 7 °F - ()
Degree Days  
Heating Degree Days 62 45  
Month to date heating degree days 588  
Since 1 July heating degree days 4309  
Cooling Degree Days 0 0  
Month to date cooling degree days 0  
Year to date cooling degree days 0  
Moisture  
Dew Point -4 °F    
Average Humidity 79    
Maximum Humidity 92    
Minimum Humidity 67    
Precipitation  
Precipitation 0.00 in 0.03 in - ()
Month to date precipitation 0.47  
Year to date precipitation 0.47  
Sea Level Pressure  
Sea Level Pressure 29.88 in    
Wind  
Wind Speed 0 mph (WSW)    
Max Wind Speed 8 mph    
Max Gust Speed -    
Visibility 8 miles    
Events Rain , Snow    
T = Trace of Precipitation, MM = Missing Value Source: NWS Daily Summary

Daily Weather History Graph

Daily Weather History Graph

Search for Another Location

Airport or City:

Trip Planner

Search our weather history database for the weather conditions in past years. The results will help you decide how hot, cold, wet, or windy it might be!

Date:

Astronomy

Jan. 13, 2013 Rise Set
Actual Time 7:27 AM MST 5:06 PM MST
Civil Twilight 6:57 AM MST 5:35 PM MST
Nautical Twilight 6:24 AM MST 6:09 PM MST
Astronomical Twilight 5:51 AM MST 6:41 PM MST
Moon 8:28 AM MST (1/13) 7:47 PM MST (1/13)
Length of Visible Light 10h 38m
Length of Day
9h 38m
Waxing Crescent, 5% of the Moon is Illuminated
Jan 13
Waxing Crescent
Jan 18
First Quarter
Jan 26
Full
Feb 3
Last Quarter
Feb 10
New

Hourly Weather History & Observations

Time (MST) Temp. Windchill Dew Point Humidity Pressure Visibility Wind Dir Wind Speed Gust Speed Precip Events Conditions
12:15 AM -0.4 °F - -7.6 °F 72% 29.86 in 10.0 mi Calm Calm - N/A   Overcast
12:35 AM -0.4 °F - -7.6 °F 72% 29.86 in 10.0 mi Calm Calm - N/A   Overcast
12:55 AM -2.2 °F - -7.6 °F 78% 29.86 in 10.0 mi Calm Calm - N/A   Overcast
1:35 AM -0.4 °F - -7.6 °F 72% 29.87 in 10.0 mi Calm Calm - N/A   Overcast
1:55 AM -0.4 °F - -5.8 °F 78% 29.87 in 10.0 mi Calm Calm - N/A   Overcast
2:15 AM -0.4 °F - -5.8 °F 78% 29.88 in 10.0 mi Calm Calm - N/A   Mostly Cloudy
2:35 AM -2.2 °F - -7.6 °F 78% 29.88 in 10.0 mi Calm Calm - N/A   Mostly Cloudy
2:55 AM -2.2 °F - -7.6 °F 78% 29.88 in 10.0 mi Calm Calm - N/A   Overcast
3:15 AM -4.0 °F - -7.6 °F 85% 29.87 in 6.0 mi Calm Calm - N/A   Overcast
3:55 AM -4.0 °F - -7.6 °F 85% 29.86 in 10.0 mi Calm Calm - N/A   Mostly Cloudy
4:15 AM -4.0 °F - -7.6 °F 85% 29.86 in 7.0 mi Calm Calm - N/A   Mostly Cloudy
4:35 AM -4.0 °F - -7.6 °F 85% 29.86 in 10.0 mi Calm Calm - N/A   Overcast
4:55 AM -5.8 °F - -7.6 °F 92% 29.86 in 7.0 mi Calm Calm - N/A   Overcast
5:15 AM -4.0 °F - -7.6 °F 85% 29.86 in 3.0 mi Calm Calm - N/A   Overcast
5:35 AM -4.0 °F - -7.6 °F 85% 29.87 in 2.0 mi Calm Calm - N/A   Overcast
5:55 AM -2.2 °F - -7.6 °F 78% 29.87 in 5.0 mi Calm Calm - N/A   Overcast
6:15 AM -4.0 °F - -7.6 °F 85% 29.88 in 6.0 mi Calm Calm - N/A   Mostly Cloudy
6:35 AM -4.0 °F - -7.6 °F 85% 29.89 in 3.0 mi Calm Calm - N/A   Overcast
6:50 AM -5.8 °F - -7.6 °F 92% 29.89 in 4.0 mi Calm Calm - N/A Snow Light Snow
7:50 AM -4.0 °F - -7.6 °F 85% 29.90 in 2.5 mi Calm Calm - N/A Snow Light Snow
8:50 AM -2.2 °F - -5.8 °F 85% 29.91 in 1.0 mi Calm Calm - N/A Snow Light Snow
9:05 AM -2.2 °F - -5.8 °F 85% 29.92 in 2.5 mi Calm Calm - N/A Snow Light Snow
9:50 AM -0.4 °F - -5.8 °F 78% 29.91 in 4.0 mi Calm Calm - N/A Snow Light Snow
10:50 AM 1.4 °F -6.2 °F -2.2 °F 85% 29.89 in 10.0 mi West 3.5 mph - N/A Snow Light Snow
11:50 AM 5.0 °F -4.1 °F -2.2 °F 72% 29.85 in 10.0 mi West 4.6 mph - N/A   Overcast
12:50 PM 6.8 °F - 1.4 °F 79% 29.83 in 10.0 mi Calm Calm - N/A   Mostly Cloudy
1:50 PM 12.2 °F - 3.2 °F 67% 29.82 in 10.0 mi Calm Calm - N/A   Mostly Cloudy
2:50 PM 10.4 °F - 1.4 °F 67% 29.83 in 10.0 mi Calm Calm - N/A   Overcast
3:50 PM 12.2 °F - 5.0 °F 73% 29.84 in 10.0 mi Calm Calm - N/A   Overcast
4:50 PM 12.2 °F - 6.8 °F 79% 29.86 in 10.0 mi Calm Calm - N/A   Mostly Cloudy
5:50 PM 12.2 °F - 5.0 °F 73% 29.87 in 10.0 mi Calm Calm - N/A   Overcast
6:50 PM 10.4 °F 2.2 °F 3.2 °F 73% 29.89 in 7.0 mi West 4.6 mph - N/A Rain Light Freezing Rain
7:59 PM 8.6 °F -2.6 °F 1.4 °F 73% 29.90 in 7.0 mi West 6.9 mph - N/A   Overcast
8:50 PM 8.6 °F -3.7 °F -0.4 °F 67% 29.90 in 10.0 mi West 8.1 mph - N/A   Overcast
9:50 PM 6.8 °F - -0.4 °F 72% 29.92 in 5.0 mi Calm Calm - N/A Snow Light Snow
10:50 PM 3.2 °F - -2.2 °F 78% 29.93 in 5.0 mi Calm Calm - N/A Snow Light Snow
11:15 PM -0.4 °F -10.4 °F -4.0 °F 85% 29.93 in 10.0 mi South 4.6 mph - N/A   Scattered Clouds
11:35 PM -0.4 °F - -4.0 °F 85% 29.93 in 10.0 mi Calm Calm - N/A   Mostly Cloudy
11:55 PM -2.2 °F - -5.8 °F 85% 29.94 in 10.0 mi Calm Calm - N/A   Overcast